CES169 ZSPD-ZBAA

Flight info

Callsign CES169
Flight time 1h 53m
Altitude 36100
Route PIK84D PIKAS G330 PIMOL A593 DALIM W157 AVBOX AVBOX6J
Aircraft B77W/H-SDE1E2E3FGHIJ2J3J4J5M1RWXY/LB1D1

Departure

Time 2026-05-05 06:19
Airport Shanghai Pudong International Airport (ZSPD)

Arrival

Time 2026-05-05 08:12
Airport Beijing Capital International Airport (ZBAA)
Time Latitude Longitude Altitude Speed Heading
2026-05-05 05:57 31.14830 121.80916 25 ft 0 kts 254°
2026-05-05 06:08 31.14833 121.80925 25 ft 2 kts 253°
2026-05-05 06:08 31.14837 121.80944 31 ft 2 kts 256°
2026-05-05 06:08 31.14840 121.80963 27 ft 2 kts 260°
2026-05-05 06:09 31.14842 121.80982 31 ft 2 kts 267°
2026-05-05 06:09 31.14841 121.81002 30 ft 2 kts 278°
2026-05-05 06:09 31.14837 121.81021 31 ft 2 kts 298°
2026-05-05 06:09 31.14827 121.81036 31 ft 2 kts 329°
2026-05-05 06:10 31.14816 121.81042 31 ft 1 kts 342°
2026-05-05 06:13 31.14843 121.81032 31 ft 10 kts 342°
2026-05-05 06:13 31.14920 121.81003 27 ft 12 kts 342°
2026-05-05 06:14 31.15001 121.80973 28 ft 13 kts 342°
2026-05-05 06:14 31.15085 121.80941 30 ft 13 kts 342°
2026-05-05 06:14 31.15169 121.80909 28 ft 13 kts 342°
2026-05-05 06:14 31.15279 121.80866 29 ft 25 kts 342°
2026-05-05 06:15 31.15508 121.80779 27 ft 40 kts 342°
2026-05-05 06:15 31.15763 121.80684 30 ft 38 kts 342°
2026-05-05 06:15 31.16008 121.80591 28 ft 29 kts 342°
2026-05-05 06:15 31.16105 121.80554 30 ft 9 kts 342°
2026-05-05 06:16 31.16168 121.80553 28 ft 10 kts 31°
2026-05-05 06:16 31.16203 121.80624 30 ft 10 kts 71°
2026-05-05 06:16 31.16227 121.80707 30 ft 11 kts 71°
2026-05-05 06:16 31.16237 121.80802 30 ft 12 kts 112°
2026-05-05 06:17 31.16161 121.80850 28 ft 14 kts 161°
2026-05-05 06:17 31.16066 121.80884 29 ft 15 kts 162°
2026-05-05 06:17 31.15967 121.80921 27 ft 16 kts 162°
2026-05-05 06:17 31.15864 121.80966 27 ft 15 kts 136°
2026-05-05 06:18 31.15863 121.81088 28 ft 17 kts 63°
2026-05-05 06:18 31.15839 121.81190 28 ft 16 kts 151°
2026-05-05 06:18 31.15689 121.81250 26 ft 38 kts 162°
2026-05-05 06:18 31.15248 121.81416 28 ft 105 kts 162°
2026-05-05 06:19 31.14319 121.81763 28 ft 172 kts 163°
2026-05-05 06:19 31.13087 121.82214 506 ft 182 kts 162°
2026-05-05 06:19 31.11974 121.82695 1722 ft 165 kts 160°
2026-05-05 06:19 31.10917 121.83251 2463 ft 173 kts 158°
2026-05-05 06:20 31.09732 121.83945 2705 ft 206 kts 155°
2026-05-05 06:20 31.08405 121.84816 2947 ft 238 kts 151°
2026-05-05 06:20 31.06964 121.85919 3609 ft 252 kts 147°
2026-05-05 06:20 31.05511 121.87120 4392 ft 260 kts 146°
2026-05-05 06:21 31.04019 121.88359 4881 ft 266 kts 146°
2026-05-05 06:21 31.02496 121.89625 4902 ft 269 kts 146°
2026-05-05 06:21 31.00978 121.90908 4906 ft 268 kts 142°
2026-05-05 06:21 30.99582 121.92341 4907 ft 267 kts 138°
2026-05-05 06:22 30.98243 121.93801 4914 ft 266 kts 138°
2026-05-05 06:22 30.97784 121.94298 4913 ft 266 kts 138°
2026-05-05 06:22 30.97640 121.94454 4916 ft 266 kts 138°
2026-05-05 06:22 30.97318 121.94801 4915 ft 266 kts 138°
2026-05-05 06:23 30.95979 121.96236 4907 ft 266 kts 139°
2026-05-05 06:23 30.94640 121.97674 4911 ft 264 kts 135°
2026-05-05 06:23 30.93665 121.99477 4917 ft 269 kts 107°
2026-05-05 06:23 30.93546 122.01657 5244 ft 274 kts 81°
2026-05-05 06:24 30.94062 122.03775 6183 ft 275 kts 72°
2026-05-05 06:24 30.94672 122.05900 7125 ft 277 kts 71°
2026-05-05 06:24 30.95284 122.08048 7938 ft 283 kts 71°
2026-05-05 06:24 30.96214 122.10071 8593 ft 288 kts 46°
2026-05-05 06:25 30.97875 122.11364 9387 ft 290 kts 17°
2026-05-05 06:25 30.99865 122.11599 10222 ft 290 kts 350°
2026-05-05 06:25 31.01846 122.10993 10697 ft 303 kts 340°
2026-05-05 06:25 31.03922 122.10195 10894 ft 332 kts 340°
2026-05-05 06:26 31.06214 122.09307 11108 ft 360 kts 340°
2026-05-05 06:26 31.08648 122.08379 11767 ft 373 kts 340°
2026-05-05 06:26 31.11145 122.07438 12722 ft 379 kts 340°
2026-05-05 06:26 31.13679 122.06488 13788 ft 384 kts 340°
2026-05-05 06:27 31.16242 122.05530 14729 ft 390 kts 340°
2026-05-05 06:27 31.21463 122.03580 16530 ft 402 kts 340°
2026-05-05 06:27 31.24147 122.02577 17410 ft 408 kts 340°
2026-05-05 06:28 31.26876 122.01557 18292 ft 414 kts 340°
2026-05-05 06:28 31.29645 122.00521 19063 ft 420 kts 339°
2026-05-05 06:28 31.32398 121.99377 19758 ft 419 kts 331°
2026-05-05 06:28 31.34746 121.97383 20402 ft 420 kts 311°
2026-05-05 06:29 31.36406 121.94585 21189 ft 419 kts 293°
2026-05-05 06:29 31.37315 121.91355 22049 ft 418 kts 279°
2026-05-05 06:29 31.37514 121.87959 22830 ft 420 kts 264°
2026-05-05 06:29 31.37108 121.84635 23307 ft 419 kts 266°
2026-05-05 06:30 31.37503 121.81216 23672 ft 433 kts 289°
2026-05-05 06:30 31.39072 121.78177 24292 ft 443 kts 310°
2026-05-05 06:30 31.41470 121.75880 25050 ft 448 kts 322°
2026-05-05 06:30 31.43206 121.74564 25503 ft 450 kts 323°
2026-05-05 06:31 31.46696 121.71865 26220 ft 456 kts 320°
2026-05-05 06:31 31.49226 121.69607 26750 ft 458 kts 316°
2026-05-05 06:31 31.50877 121.67964 27119 ft 459 kts 314°
2026-05-05 06:31 31.53224 121.65431 27709 ft 461 kts 312°
2026-05-05 06:32 31.55492 121.62823 28247 ft 463 kts 310°
2026-05-05 06:32 31.56582 121.61538 28488 ft 464 kts 310°
2026-05-05 06:32 31.58155 121.59659 28832 ft 467 kts 310°
2026-05-05 06:32 31.58840 121.58837 28970 ft 468 kts 310°
2026-05-05 06:33 31.61123 121.56094 29414 ft 471 kts 310°
2026-05-05 06:33 31.63425 121.53334 29838 ft 475 kts 310°
2026-05-05 06:33 31.65725 121.50587 30199 ft 478 kts 310°
2026-05-05 06:33 31.68064 121.47804 30597 ft 479 kts 310°
2026-05-05 06:34 31.70406 121.45025 31087 ft 477 kts 310°
2026-05-05 06:34 31.72731 121.42269 31604 ft 475 kts 310°
2026-05-05 06:34 31.75050 121.39517 32108 ft 473 kts 310°
2026-05-05 06:36 31.75987 121.38405 32295 ft 472 kts 310°
2026-05-05 06:36 31.78297 121.35659 32762 ft 471 kts 310°
2026-05-05 06:36 31.80599 121.32920 33218 ft 470 kts 309°
2026-05-05 06:36 31.82893 121.30187 33681 ft 469 kts 309°
2026-05-05 06:37 31.85178 121.27463 34130 ft 467 kts 309°
2026-05-05 06:37 31.87461 121.24738 34504 ft 466 kts 309°
2026-05-05 06:37 31.89738 121.22020 34840 ft 466 kts 309°
2026-05-05 06:37 31.92010 121.19304 35176 ft 465 kts 309°
2026-05-05 06:38 31.94280 121.16589 35521 ft 464 kts 309°
2026-05-05 06:38 31.96551 121.13871 35855 ft 464 kts 309°
2026-05-05 06:38 31.98786 121.11194 36018 ft 465 kts 309°
2026-05-05 06:39 32.03321 121.05755 36078 ft 464 kts 309°
2026-05-05 06:39 32.07839 121.00330 36088 ft 462 kts 309°
2026-05-05 06:39 32.09834 120.97383 36077 ft 455 kts 297°
2026-05-05 06:40 32.11105 120.94012 36086 ft 447 kts 284°
2026-05-05 06:40 32.12924 120.86958 36088 ft 452 kts 285°
2026-05-05 06:41 32.13494 120.84838 36089 ft 453 kts 285°
2026-05-05 06:41 32.15442 120.77812 36076 ft 452 kts 285°
2026-05-05 06:42 32.17115 120.70697 36076 ft 449 kts 276°
2026-05-05 06:42 32.17680 120.63339 36080 ft 450 kts 273°
2026-05-05 06:43 32.18171 120.55967 36077 ft 450 kts 274°
2026-05-05 06:43 32.18747 120.48605 36074 ft 451 kts 274°
2026-05-05 06:44 32.19352 120.41277 36076 ft 451 kts 274°
2026-05-05 06:44 32.19958 120.33882 36073 ft 452 kts 274°
2026-05-05 06:45 32.20552 120.26534 36071 ft 452 kts 275°
2026-05-05 06:45 32.21158 120.19143 36073 ft 452 kts 275°
2026-05-05 06:46 32.21763 120.11738 36071 ft 453 kts 275°
2026-05-05 06:46 32.22363 120.04337 36069 ft 453 kts 275°
2026-05-05 06:47 32.22959 119.96917 36071 ft 453 kts 275°
2026-05-05 06:47 32.23552 119.89491 36070 ft 454 kts 275°
2026-05-05 06:48 32.24147 119.82214 36064 ft 452 kts 278°
2026-05-05 06:48 32.25023 119.78641 36072 ft 457 kts 293°
2026-05-05 06:48 32.26616 119.75371 36076 ft 461 kts 303°
2026-05-05 06:48 32.28732 119.72486 36058 ft 467 kts 316°
2026-05-05 06:49 32.31332 119.70183 36081 ft 468 kts 321°
2026-05-05 06:49 32.36690 119.65829 36069 ft 470 kts 322°
2026-05-05 06:50 32.42024 119.61355 36062 ft 469 kts 321°
2026-05-05 06:50 32.47307 119.56828 36063 ft 468 kts 321°
2026-05-05 06:51 32.52578 119.52280 36060 ft 468 kts 321°
2026-05-05 06:51 32.57810 119.47752 36056 ft 468 kts 321°
2026-05-05 06:52 32.63076 119.43191 36055 ft 467 kts 321°
2026-05-05 06:52 32.68291 119.38668 36052 ft 467 kts 321°
2026-05-05 06:53 32.73557 119.34096 36051 ft 467 kts 321°
2026-05-05 06:53 32.78773 119.29559 36049 ft 467 kts 321°
2026-05-05 06:54 32.84017 119.24992 36044 ft 467 kts 321°
2026-05-05 06:54 32.89256 119.20421 36041 ft 466 kts 321°
2026-05-05 06:55 32.94483 119.15856 36039 ft 466 kts 321°
2026-05-05 06:55 32.99729 119.11312 36030 ft 466 kts 322°
2026-05-05 06:56 33.04975 119.06783 36033 ft 465 kts 322°
2026-05-05 06:56 33.10186 119.02268 36027 ft 465 kts 322°
2026-05-05 06:57 33.15418 118.97725 36026 ft 465 kts 322°
2026-05-05 06:57 33.20634 118.93191 36020 ft 464 kts 322°
2026-05-05 06:58 33.25868 118.88647 36018 ft 464 kts 322°
2026-05-05 06:58 33.31054 118.84141 36021 ft 464 kts 322°
2026-05-05 06:59 33.36295 118.79612 36015 ft 464 kts 322°
2026-05-05 06:59 33.41536 118.75080 36010 ft 464 kts 322°
2026-05-05 07:00 33.46755 118.70555 36011 ft 463 kts 322°
2026-05-05 07:00 33.51980 118.66031 36003 ft 463 kts 323°
2026-05-05 07:01 33.57183 118.61526 36001 ft 463 kts 323°
2026-05-05 07:01 33.62405 118.56995 36000 ft 463 kts 323°
2026-05-05 07:02 33.67623 118.52459 35997 ft 463 kts 323°
2026-05-05 07:02 33.72841 118.47916 35990 ft 463 kts 323°
2026-05-05 07:03 33.78059 118.43366 35988 ft 463 kts 323°
2026-05-05 07:03 33.83265 118.38819 35987 ft 462 kts 323°
2026-05-05 07:04 33.88463 118.34273 35988 ft 462 kts 323°
2026-05-05 07:04 33.93623 118.29752 35983 ft 461 kts 323°
2026-05-05 07:05 33.98846 118.25174 35991 ft 468 kts 323°
2026-05-05 07:05 34.04173 118.20531 35985 ft 473 kts 323°
2026-05-05 07:06 34.09512 118.15868 35973 ft 473 kts 323°
2026-05-05 07:06 34.14794 118.11237 35972 ft 471 kts 323°
2026-05-05 07:07 34.20099 118.06578 35971 ft 471 kts 323°
2026-05-05 07:07 34.25493 118.02050 35968 ft 471 kts 329°
2026-05-05 07:08 34.31394 117.98592 35974 ft 472 kts 338°
2026-05-05 07:08 34.37644 117.96172 35973 ft 472 kts 343°
2026-05-05 07:09 34.43920 117.94010 35962 ft 471 kts 343°
2026-05-05 07:09 34.50218 117.91808 35959 ft 470 kts 342°
2026-05-05 07:10 34.56494 117.89570 35957 ft 470 kts 342°
2026-05-05 07:10 34.62772 117.87319 35958 ft 469 kts 342°
2026-05-05 07:11 34.69002 117.85082 35954 ft 469 kts 342°
2026-05-05 07:11 34.75268 117.82831 35953 ft 469 kts 342°
2026-05-05 07:12 34.81518 117.80583 35955 ft 468 kts 342°
2026-05-05 07:12 34.87758 117.78353 35956 ft 467 kts 342°
2026-05-05 07:13 34.93997 117.76084 35938 ft 467 kts 342°
2026-05-05 07:13 35.00227 117.73808 35956 ft 466 kts 342°
2026-05-05 07:14 35.06398 117.71557 35942 ft 466 kts 342°
2026-05-05 07:14 35.12610 117.69284 35953 ft 466 kts 342°
2026-05-05 07:15 35.18824 117.67000 35955 ft 466 kts 342°
2026-05-05 07:15 35.25043 117.64711 35948 ft 466 kts 342°
2026-05-05 07:16 35.31249 117.62424 35948 ft 466 kts 342°
2026-05-05 07:16 35.37464 117.60130 35932 ft 465 kts 342°
2026-05-05 07:17 35.42619 117.58225 35943 ft 465 kts 342°
2026-05-05 07:17 35.49831 117.55554 35929 ft 465 kts 342°
2026-05-05 07:18 35.55034 117.53625 35933 ft 465 kts 342°
2026-05-05 07:18 35.61191 117.51338 35934 ft 465 kts 342°
2026-05-05 07:19 35.67385 117.49034 35918 ft 465 kts 342°
2026-05-05 07:19 35.73578 117.46727 35923 ft 465 kts 342°
2026-05-05 07:20 35.79779 117.44412 35918 ft 465 kts 342°
2026-05-05 07:20 35.85979 117.42095 35931 ft 465 kts 342°
2026-05-05 07:21 35.92173 117.39775 35919 ft 464 kts 342°
2026-05-05 07:21 35.98329 117.37466 35917 ft 464 kts 342°
2026-05-05 07:22 36.04522 117.35156 35907 ft 464 kts 342°
2026-05-05 07:22 36.10717 117.32867 35909 ft 464 kts 342°
2026-05-05 07:23 36.16916 117.30572 36097 ft 468 kts 343°
2026-05-05 07:23 36.23249 117.28219 36111 ft 481 kts 343°
2026-05-05 07:24 36.29691 117.25820 36111 ft 492 kts 343°
2026-05-05 07:24 36.36286 117.23361 36107 ft 496 kts 343°
2026-05-05 07:25 36.42905 117.20791 36107 ft 499 kts 339°
2026-05-05 07:25 36.49325 117.17516 36099 ft 497 kts 336°
2026-05-05 07:26 36.55677 117.14135 36107 ft 494 kts 333°
2026-05-05 07:26 36.61867 117.10876 36101 ft 480 kts 333°
2026-05-05 07:27 36.68003 117.07667 36095 ft 476 kts 334°
2026-05-05 07:27 36.73618 117.04729 36105 ft 483 kts 335°
2026-05-05 07:28 36.79858 117.01462 36102 ft 487 kts 335°
2026-05-05 07:28 36.86072 116.98204 36098 ft 486 kts 335°
2026-05-05 07:29 36.92302 116.94931 36102 ft 486 kts 335°
2026-05-05 07:29 36.98546 116.91644 36100 ft 486 kts 335°
2026-05-05 07:30 37.04777 116.88357 36101 ft 486 kts 335°
2026-05-05 07:30 37.14096 116.83431 36102 ft 486 kts 335°
2026-05-05 07:31 37.20328 116.80131 36100 ft 486 kts 335°
2026-05-05 07:31 37.26748 116.77378 36106 ft 488 kts 341°
2026-05-05 07:32 37.33244 116.74989 36101 ft 488 kts 341°
2026-05-05 07:32 37.39761 116.72581 36093 ft 490 kts 341°
2026-05-05 07:33 37.46347 116.70098 36109 ft 497 kts 341°
2026-05-05 07:33 37.53002 116.67570 36106 ft 500 kts 341°
2026-05-05 07:34 37.59662 116.65037 36099 ft 499 kts 341°
2026-05-05 07:34 37.66301 116.62509 36103 ft 499 kts 341°
2026-05-05 07:35 37.72918 116.59984 36100 ft 499 kts 341°
2026-05-05 07:35 37.79568 116.57442 36102 ft 499 kts 341°
2026-05-05 07:36 37.86214 116.54896 36101 ft 499 kts 341°
2026-05-05 07:36 37.92824 116.52344 35073 ft 491 kts 339°
2026-05-05 07:37 37.95934 116.50787 34164 ft 485 kts 333°
2026-05-05 07:37 37.98961 116.48875 33186 ft 487 kts 329°
2026-05-05 07:37 38.01868 116.46654 32129 ft 488 kts 323°
2026-05-05 07:37 38.04628 116.44131 31034 ft 490 kts 321°
2026-05-05 07:38 38.07375 116.41532 30203 ft 487 kts 321°
2026-05-05 07:38 38.10095 116.38998 29413 ft 483 kts 322°
2026-05-05 07:38 38.12811 116.36502 28629 ft 479 kts 322°
2026-05-05 07:38 38.15442 116.34081 27884 ft 475 kts 322°
2026-05-05 07:39 38.18070 116.31655 27153 ft 471 kts 322°
2026-05-05 07:39 38.20704 116.29218 26434 ft 465 kts 322°
2026-05-05 07:39 38.23408 116.27015 25679 ft 458 kts 333°
2026-05-05 07:39 38.26454 116.25854 24979 ft 458 kts 349°
2026-05-05 07:40 38.29623 116.25705 24313 ft 457 kts
2026-05-05 07:40 38.32745 116.26513 23659 ft 453 kts 13°
2026-05-05 07:40 38.35767 116.27609 23006 ft 448 kts 14°
2026-05-05 07:40 38.38711 116.28696 22358 ft 444 kts 13°
2026-05-05 07:41 38.41682 116.29775 21700 ft 440 kts 13°
2026-05-05 07:41 38.44616 116.30817 21058 ft 437 kts 13°
2026-05-05 07:41 38.47538 116.31836 20419 ft 433 kts 12°
2026-05-05 07:41 38.50437 116.32838 19783 ft 430 kts 12°
2026-05-05 07:42 38.53313 116.33828 19154 ft 427 kts 12°
2026-05-05 07:42 38.56175 116.34815 18529 ft 424 kts 12°
2026-05-05 07:42 38.59020 116.35798 17897 ft 421 kts 12°
2026-05-05 07:42 38.61829 116.36786 17273 ft 414 kts 15°
2026-05-05 07:43 38.64368 116.38378 16680 ft 415 kts 34°
2026-05-05 07:43 38.66398 116.40916 16662 ft 408 kts 51°
2026-05-05 07:43 38.67978 116.43982 16639 ft 417 kts 57°
2026-05-05 07:43 38.69498 116.47168 16588 ft 420 kts 57°
2026-05-05 07:44 38.71012 116.50388 16554 ft 422 kts 57°
2026-05-05 07:44 38.72528 116.53605 16501 ft 422 kts 57°
2026-05-05 07:44 38.74054 116.56819 16466 ft 421 kts 57°
2026-05-05 07:44 38.75579 116.60008 16419 ft 420 kts 57°
2026-05-05 07:45 38.77116 116.63207 16390 ft 420 kts 57°
2026-05-05 07:45 38.78653 116.66399 16332 ft 420 kts 57°
2026-05-05 07:45 38.80171 116.69548 16293 ft 420 kts 57°
2026-05-05 07:45 38.81707 116.72736 16255 ft 420 kts 57°
2026-05-05 07:46 38.83246 116.75933 16215 ft 419 kts 57°
2026-05-05 07:46 38.84777 116.79119 16163 ft 419 kts 57°
2026-05-05 07:46 38.86306 116.82304 16140 ft 419 kts 57°
2026-05-05 07:46 38.87838 116.85498 16108 ft 419 kts 57°
2026-05-05 07:47 38.89362 116.88679 16056 ft 419 kts 57°
2026-05-05 07:47 38.90868 116.91825 16011 ft 418 kts 57°
2026-05-05 07:47 38.92392 116.95013 15971 ft 418 kts 57°
2026-05-05 07:47 38.93917 116.98205 15920 ft 418 kts 57°
2026-05-05 07:48 38.95437 117.01391 15892 ft 418 kts 57°
2026-05-05 07:48 38.96953 117.04570 15858 ft 417 kts 57°
2026-05-05 07:48 38.98469 117.07754 15807 ft 417 kts 57°
2026-05-05 07:48 39.00005 117.10907 15761 ft 412 kts 52°
2026-05-05 07:49 39.02007 117.13475 15721 ft 412 kts 32°
2026-05-05 07:49 39.04573 117.15036 15682 ft 406 kts 13°
2026-05-05 07:49 39.07348 117.15547 15523 ft 400 kts 358°
2026-05-05 07:49 39.10045 117.15149 15371 ft 392 kts 342°
2026-05-05 07:50 39.12619 117.14055 15244 ft 390 kts 338°
2026-05-05 07:50 39.15179 117.12866 15096 ft 390 kts 337°
2026-05-05 07:50 39.17729 117.11672 14953 ft 388 kts 337°
2026-05-05 07:50 39.20249 117.10506 14809 ft 387 kts 338°
2026-05-05 07:51 39.22796 117.09347 14667 ft 387 kts 338°
2026-05-05 07:51 39.25335 117.08204 14526 ft 386 kts 338°
2026-05-05 07:51 39.27871 117.07070 14387 ft 385 kts 338°
2026-05-05 07:51 39.30411 117.05936 14243 ft 385 kts 338°
2026-05-05 07:52 39.32940 117.04807 14102 ft 384 kts 338°
2026-05-05 07:52 39.35458 117.03682 13964 ft 383 kts 338°
2026-05-05 07:52 39.37978 117.02556 13817 ft 382 kts 338°
2026-05-05 07:52 39.40492 117.01431 13599 ft 382 kts 338°
2026-05-05 07:53 39.42963 117.00325 13355 ft 380 kts 338°
2026-05-05 07:53 39.45454 116.99208 13120 ft 378 kts 338°
2026-05-05 07:53 39.47932 116.98097 12891 ft 377 kts 338°
2026-05-05 07:53 39.50413 116.96983 12649 ft 375 kts 338°
2026-05-05 07:54 39.52877 116.95875 12419 ft 374 kts 338°
2026-05-05 07:54 39.55340 116.94768 12192 ft 373 kts 338°
2026-05-05 07:54 39.57760 116.93679 11952 ft 371 kts 338°
2026-05-05 07:54 39.60228 116.92568 11709 ft 370 kts 338°
2026-05-05 07:55 39.62673 116.91666 11486 ft 371 kts 346°
2026-05-05 07:55 39.65220 116.91192 11274 ft 366 kts 351°
2026-05-05 07:55 39.67723 116.90890 11031 ft 356 kts 352°
2026-05-05 07:55 39.70154 116.90615 10805 ft 346 kts 352°
2026-05-05 07:56 39.72522 116.90322 10588 ft 336 kts 351°
2026-05-05 07:56 39.74820 116.90012 10378 ft 327 kts 351°
2026-05-05 07:56 39.77056 116.89691 10175 ft 318 kts 350°
2026-05-05 07:56 39.79233 116.89369 9976 ft 310 kts 350°
2026-05-05 07:57 39.81319 116.89056 9921 ft 298 kts 349°
2026-05-05 07:57 39.83355 116.88747 9667 ft 293 kts 349°
2026-05-05 07:57 39.85368 116.88440 9456 ft 287 kts 349°
2026-05-05 07:57 39.87336 116.88141 9255 ft 281 kts 349°
2026-05-05 07:58 39.89256 116.87848 9080 ft 277 kts 349°
2026-05-05 07:58 39.91166 116.87558 8907 ft 274 kts 349°
2026-05-05 07:58 39.93034 116.87272 8754 ft 273 kts 349°
2026-05-05 07:58 39.94927 116.86983 8600 ft 273 kts 349°
2026-05-05 07:59 39.96819 116.86694 8441 ft 273 kts 349°
2026-05-05 07:59 39.98703 116.86407 8287 ft 272 kts 349°
2026-05-05 07:59 40.00584 116.86120 8127 ft 272 kts 349°
2026-05-05 07:59 40.02374 116.85503 7951 ft 263 kts 326°
2026-05-05 08:00 40.03686 116.83909 7816 ft 257 kts 299°
2026-05-05 08:00 40.04343 116.81768 7683 ft 254 kts 280°
2026-05-05 08:00 40.04382 116.79474 7533 ft 253 kts 264°
2026-05-05 08:00 40.04337 116.77227 7368 ft 253 kts 281°
2026-05-05 08:01 40.05091 116.75153 7241 ft 256 kts 308°
2026-05-05 08:01 40.06495 116.73700 7096 ft 261 kts 329°
2026-05-05 08:01 40.08246 116.73054 6944 ft 265 kts 349°
2026-05-05 08:01 40.10089 116.72790 6781 ft 267 kts 349°
2026-05-05 08:02 40.11938 116.72533 6628 ft 266 kts 349°
2026-05-05 08:02 40.13779 116.72271 6459 ft 265 kts 349°
2026-05-05 08:02 40.14996 116.72093 6363 ft 265 kts 349°
2026-05-05 08:02 40.16821 116.71818 6216 ft 264 kts 349°
2026-05-05 08:03 40.19237 116.71448 6014 ft 263 kts 349°
2026-05-05 08:03 40.20462 116.71259 5911 ft 262 kts 349°
2026-05-05 08:03 40.22275 116.70979 5758 ft 262 kts 349°
2026-05-05 08:03 40.24064 116.70701 5600 ft 262 kts 349°
2026-05-05 08:04 40.25873 116.70421 5448 ft 261 kts 349°
2026-05-05 08:04 40.27675 116.70141 5290 ft 261 kts 349°
2026-05-05 08:04 40.29476 116.69861 5135 ft 260 kts 349°
2026-05-05 08:04 40.31261 116.69585 5006 ft 255 kts 349°
2026-05-05 08:05 40.32989 116.69318 4919 ft 245 kts 348°
2026-05-05 08:05 40.34642 116.69020 4746 ft 231 kts 339°
2026-05-05 08:05 40.35937 116.68015 4598 ft 216 kts 307°
2026-05-05 08:05 40.36666 116.66317 4498 ft 212 kts 287°
2026-05-05 08:06 40.36876 116.64446 4338 ft 206 kts 267°
2026-05-05 08:06 40.36729 116.62568 4245 ft 208 kts 263°
2026-05-05 08:06 40.36543 116.60681 4124 ft 207 kts 261°
2026-05-05 08:06 40.36016 116.58963 3988 ft 208 kts 233°
2026-05-05 08:07 40.34865 116.57759 3746 ft 220 kts 209°
2026-05-05 08:07 40.33350 116.57333 3417 ft 228 kts 183°
2026-05-05 08:07 40.31762 116.57530 3107 ft 232 kts 178°
2026-05-05 08:07 40.30194 116.57824 2907 ft 227 kts 177°
2026-05-05 08:08 40.28657 116.58122 2763 ft 218 kts 176°
2026-05-05 08:08 40.27189 116.58390 2622 ft 207 kts 178°
2026-05-05 08:08 40.25793 116.58620 2514 ft 199 kts 179°
2026-05-05 08:08 40.24445 116.58835 2478 ft 191 kts 179°
2026-05-05 08:09 40.23157 116.59041 2370 ft 180 kts 180°
2026-05-05 08:09 40.21926 116.59235 2273 ft 179 kts 180°
2026-05-05 08:09 40.20703 116.59428 2162 ft 177 kts 180°
2026-05-05 08:09 40.19483 116.59621 2069 ft 176 kts 180°
2026-05-05 08:10 40.18262 116.59814 1979 ft 176 kts 180°
2026-05-05 08:10 40.17046 116.60006 1730 ft 175 kts 179°
2026-05-05 08:10 40.15831 116.60197 1497 ft 178 kts 179°
2026-05-05 08:10 40.14601 116.60392 1252 ft 177 kts 179°
2026-05-05 08:11 40.13396 116.60582 1023 ft 177 kts 179°
2026-05-05 08:11 40.12168 116.60776 754 ft 177 kts 179°
2026-05-05 08:11 40.10956 116.60970 486 ft 175 kts 179°
2026-05-05 08:11 40.09751 116.61162 248 ft 173 kts 178°
2026-05-05 08:12 40.09143 116.61258 128 ft 173 kts 174°
2026-05-05 08:12 40.08079 116.61417 112 ft 126 kts 171°
2026-05-05 08:12 40.07435 116.61518 113 ft 60 kts 173°
2026-05-05 08:12 40.07051 116.61575 114 ft 47 kts 177°
2026-05-05 08:13 40.06792 116.61496 113 ft 24 kts 203°
2026-05-05 08:13 40.06767 116.61482 113 ft 0 kts 201°
2026-05-05 08:14 40.06766 116.61482 115 ft 1 kts 201°
2026-05-05 08:14 40.06724 116.61460 113 ft 15 kts 201°
2026-05-05 08:14 40.06648 116.61393 113 ft 12 kts 241°
2026-05-05 08:14 40.06675 116.61298 111 ft 12 kts 331°
2026-05-05 08:15 40.06759 116.61273 113 ft 12 kts 352°
2026-05-05 08:15 40.06845 116.61259 113 ft 12 kts 353°
2026-05-05 08:15 40.06927 116.61232 114 ft 12 kts 326°
2026-05-05 08:15 40.06946 116.61128 115 ft 12 kts 264°
2026-05-05 08:16 40.06943 116.61016 112 ft 12 kts 284°
2026-05-05 08:16 40.07014 116.60967 112 ft 12 kts 353°
2026-05-05 08:16 40.07099 116.60953 112 ft 12 kts 353°
2026-05-05 08:16 40.07185 116.60941 113 ft 12 kts 353°
2026-05-05 08:17 40.07264 116.60929 113 ft 11 kts 354°
2026-05-05 08:17 40.07299 116.60855 112 ft 11 kts 262°
2026-05-05 08:17 40.07294 116.60808 113 ft 0 kts 261°